AFL008 UNKL-UNNT

Flight info

Callsign AFL008
Flight time N/A
Altitude 34000
Route APRUS DCT KESED DCT EB
Aircraft T154/M-SDGRWY/S

Departure

Time 2026-04-30 11:38
Airport Krasnoyarsk International Airport (UNKL)

Arrival

Time N/A
Airport Novosibirsk Tolmachevo Airport (UNNT)
Time Latitude Longitude Altitude Speed Heading
2026-04-30 11:13 56.18126 92.47259 951 ft 0 kts 21°
2026-04-30 11:30 56.18137 92.47266 951 ft 3 kts 20°
2026-04-30 11:31 56.18168 92.47273 951 ft 5 kts 343°
2026-04-30 11:31 56.18205 92.47218 951 ft 8 kts 304°
2026-04-30 11:31 56.18234 92.47106 951 ft 11 kts 293°
2026-04-30 11:31 56.18268 92.46960 951 ft 14 kts 292°
2026-04-30 11:32 56.18238 92.46841 951 ft 10 kts 183°
2026-04-30 11:32 56.18170 92.46787 951 ft 12 kts 208°
2026-04-30 11:32 56.18083 92.46712 951 ft 15 kts 202°
2026-04-30 11:33 56.17907 92.46740 951 ft 1 kts 116°
2026-04-30 11:37 56.17813 92.47111 951 ft 76 kts 111°
2026-04-30 11:37 56.17501 92.48431 952 ft 153 kts 111°
2026-04-30 11:37 56.17040 92.50447 1329 ft 183 kts 112°
2026-04-30 11:38 56.16563 92.52561 2160 ft 184 kts 112°
2026-04-30 11:38 56.15781 92.54256 3028 ft 181 kts 152°
2026-04-30 11:38 56.14552 92.54699 3736 ft 193 kts 188°
2026-04-30 11:38 56.13308 92.53839 4568 ft 198 kts 219°
2026-04-30 11:39 56.12456 92.51903 5399 ft 207 kts 250°
2026-04-30 11:39 56.12205 92.50035 5803 ft 194 kts 272°
2026-04-30 11:39 56.12405 92.47474 5882 ft 224 kts 284°
2026-04-30 11:39 56.12812 92.44607 6175 ft 245 kts 285°
2026-04-30 11:40 56.13255 92.41577 6653 ft 258 kts 285°
2026-04-30 11:40 56.13786 92.38432 7233 ft 267 kts 289°
2026-04-30 11:40 56.14287 92.35209 7874 ft 272 kts 281°
2026-04-30 11:40 56.14418 92.31828 8590 ft 276 kts 269°
2026-04-30 11:41 56.14199 92.28359 9290 ft 279 kts 261°
2026-04-30 11:41 56.13781 92.24957 9940 ft 283 kts 257°
2026-04-30 11:41 56.13267 92.21541 10559 ft 286 kts 256°
2026-04-30 11:41 56.12716 92.18105 11166 ft 290 kts 255°
2026-04-30 11:42 56.12146 92.14593 11779 ft 293 kts 255°
2026-04-30 11:42 56.11578 92.11069 12386 ft 295 kts 255°
2026-04-30 11:42 56.11007 92.07522 12990 ft 297 kts 255°
2026-04-30 11:42 56.10433 92.03970 13588 ft 298 kts 256°
2026-04-30 11:43 56.09848 92.00380 14188 ft 300 kts 255°
2026-04-30 11:43 56.09258 91.96793 14778 ft 300 kts 255°
2026-04-30 11:43 56.08670 91.93246 15357 ft 301 kts 255°
2026-04-30 11:43 56.08065 91.89629 15937 ft 302 kts 255°
2026-04-30 11:44 56.07459 91.86035 16509 ft 302 kts 255°
2026-04-30 11:44 56.06844 91.82415 17072 ft 302 kts 255°
2026-04-30 11:44 56.06233 91.78855 17613 ft 302 kts 255°
2026-04-30 11:44 56.05609 91.75250 18148 ft 303 kts 255°
2026-04-30 11:45 56.04982 91.71641 18681 ft 303 kts 255°
2026-04-30 11:45 56.04353 91.68053 19196 ft 304 kts 255°
2026-04-30 11:45 56.03717 91.64454 19702 ft 303 kts 255°
2026-04-30 11:45 56.03073 91.60841 20198 ft 304 kts 255°
2026-04-30 11:46 56.02432 91.57256 20685 ft 304 kts 255°
2026-04-30 11:46 56.01780 91.53642 21163 ft 304 kts 255°
2026-04-30 11:46 56.01127 91.50047 21630 ft 304 kts 255°
2026-04-30 11:46 56.00473 91.46472 22079 ft 304 kts 255°